Regional Weather Roundup
Issued by NWS

Home | Current Version | Previous Version | Graphics & Text | Print | Product List | Glossary On
Versions: 1 2 3 4 5 6 7 8 9 10 11 12 13 14 15 16 17 18 19 20 21 22 23 24 25 26 27 28 29 30 31 32 33 34 35 36 37 38 39 40 41 42 43 44 45 46 47 48 49 50
000
ASUS43 KIND 180509
RWRIN

WEATHER ROUNDUP FOR INDIANA
NATIONAL WEATHER SERVICE INDIANAPOLIS IN
100 AM EDT FRI AUG 18 2017

NOTE: "FAIR" INDICATES FEW OR NO CLOUDS BELOW 12,000 FEET WITH NO
SIGNIFICANT WEATHER AND/OR OBSTRUCTIONS TO VISIBILITY.

* - STATION DOES NOT REPORT WEATHER SUCH AS PRECIPITATION OR FOG.

+ - STATION NOT QUALITY CONTROLLED BY THE NATIONAL WEATHER SERVICE.
    USE DATA WITH CAUTION...ESPECIALLY DEWPOINT AND RELATIVE
    HUMIDITY OBSERVATIONS.

INZ001>003-010>013-019-020-180600-
NORTHWEST INDIANA

CITY           SKY/WX    TMP DP  RH WIND       PRES   REMARKS
GARY /AIRPORT/ MOCLDY    76  63  63 W9        29.79S
KNOX *+        CLEAR     70  66  88 W7        29.80S
LA PORTE +     PTCLDY    69  65  88 W5        29.80S
MICHIGAN CITY+ CLOUDY    73  61  64 W8        29.79S
MONTICELLO +   MOCLDY    71  67  85 W8        29.82S
RENSSELAER +   CLEAR     70  63  78 SW7       29.83S
VALPARAISO     CLEAR     71  66  84 SW5       29.80S

$$

LMZ046-743>745-180600-
SOUTHERN LAKE MICHIGAN

STATION/POSITION TIME  TEMP    WIND        PRES    WAVE
                       AIR SEA DIR/SP/G            HT
                 (UTC) (F)     (DEG/KT/KT) (MB)    (FT)
BURNS HARBOR     0440   76     260/ 15/ 20 1009.1R
MICHIGAN CITY    0440   74     250/ 20/ 22   N/A
5NW MICH CITY    0500   75 74  280/ 16/ 19   N/A     4

$$

INZ004-005-014>016-021>024-180600-
NORTH CENTRAL INDIANA

CITY           SKY/WX    TMP DP  RH WIND       PRES   REMARKS
GOSHEN         MOCLDY    72  65  78 SW8       29.79S
LOGANSPORT +   PTCLDY    68  64  88 SW9       29.83S
PERU/GRISSOM   CLEAR     70  69  96 W12       29.82S
ROCHESTER +    PTCLDY    73  68  83 SW8       29.82S
SOUTH BEND     PTCLDY    71  70  96 W10       29.79R
WARSAW +       MOCLDY    72  66  83 SW10      29.80F

$$

INZ006>009-017-018-025>027-180600-
NORTHEAST INDIANA

CITY           SKY/WX    TMP DP  RH WIND       PRES   REMARKS
AUBURN +       CLEAR     72  64  78 SW6       29.80F
FORT WAYNE     PTCLDY    70  66  87 S8        29.81F
HUNTINGTON +   CLEAR     70  69  96 SW5       29.81F
KENDALLVILLE + CLEAR     70  66  88 SW8       29.80S

$$

INZ028-029-035-036-043>045-051>053-180600-
WEST CENTRAL INDIANA

CITY           SKY/WX    TMP DP  RH WIND       PRES   REMARKS
GREENCASTLE +  CLEAR     68  68 100 CALM      29.87S
LAFAYETTE      MOCLDY    69  67  93 W7        29.83S
TERRE HAUTE    CLEAR     70  66  87 W5        29.86F

$$

INZ030>032-037>040-046>048-054>057-064-065-180600-
CENTRAL INDIANA

CITY           SKY/WX    TMP DP  RH WIND       PRES   REMARKS
CP ATTERBURY + PTCLDY    72  68  88 SW3       29.87F
FRANKFORT +    MOCLDY    70  67  92 CALM      29.86S
GREENWOOD *+   MOCLDY    75  67  77 W7        29.87S
INDIANAPOLIS   PTCLDY    72  68  87 SW7       29.85S
-EAGLE CREEK   CLEAR     74  68  81 VRB5      29.85F
KOKOMO +       CLEAR     71  67  87 SW8       29.84S
MARION +       CLEAR     70  66  88 SW7       29.84S
MT COMFORT *+  PTCLDY    72  68  88 SW6       29.87S
SHELBYVILLE    PTCLDY    73  67  81 SW6       29.85F
ZIONSVILLE +   CLEAR     70  68  91 W6        29.86F

$$

INZ033-034-041-042-049-050-058-059-180600-
EAST CENTRAL INDIANA

CITY           SKY/WX    TMP DP  RH WIND       PRES   REMARKS
MUNCIE         CLEAR     75  68  78 SW5       29.85S
RICHMOND +     CLEAR     70  70 100 SW8       29.88S FOG

$$

INZ060-061-067>069-081>083-085>088-180600-
SOUTHWEST INDIANA

CITY           SKY/WX    TMP DP  RH WIND       PRES   REMARKS
EVANSVILLE     MOCLDY    76  71  85 SW8       29.89S
HUNTINGBURG +  PTCLDY    73  71  93 SW5       29.88F
WASHINGTON +   CLOUDY    76  71  85 MISG      29.87S

$$

INZ062-063-066-070>080-084-089>092-180600-
SOUTH CENTRAL AND SOUTHEAST INDIANA

CITY           SKY/WX    TMP DP  RH WIND       PRES   REMARKS
BEDFORD +      CLEAR     73  70  88 CALM      29.87F
BLOOMINGTON    MOCLDY    71  67  87 W3        29.87F
MADISON *+     CLOUDY    73  72  94 SW3       29.90F
NORTH VERNON + CLOUDY    73  72  94 SW6       29.88F
SEYMOUR +      PTCLDY    73  73 100 CALM      29.87F FOG

$$





USA.gov is the U.S. government's official web portal to all federal, state and local government web resources and services.